TimeCST,TemperatureF,Dew PointF,Humidity,Sea Level PressureIn,VisibilityMPH,Wind Direction,Wind SpeedMPH,Gust SpeedMPH,PrecipitationIn,Events,Conditions,WindDirDegrees,DateUTC
12:15 AM,17.6,15.8,93,30.08,10.0,WSW,4.6,-,N/A,,Mostly Cloudy,250,2013-02-06 06:15:00
12:35 AM,15.8,14.0,93,30.09,8.0,WSW,3.5,-,N/A,,Overcast,250,2013-02-06 06:35:00
1:15 AM,15.8,14.0,93,30.09,8.0,Calm,Calm,-,N/A,,Overcast,0,2013-02-06 07:15:00
1:35 AM,14.0,12.2,93,30.08,7.0,Calm,Calm,-,N/A,,Mostly Cloudy,0,2013-02-06 07:35:00
1:55 AM,15.8,12.2,86,30.09,7.0,Calm,Calm,-,N/A,,Partly Cloudy,0,2013-02-06 07:55:00
2:15 AM,15.8,12.2,86,30.09,7.0,Calm,Calm,-,N/A,,Clear,0,2013-02-06 08:15:00
2:35 AM,14.0,12.2,93,30.09,6.0,Calm,Calm,-,N/A,,Clear,0,2013-02-06 08:35:00
2:55 AM,12.2,10.4,92,30.08,4.0,Calm,Calm,-,N/A,,Clear,0,2013-02-06 08:55:00
3:15 AM,14.0,10.4,86,30.08,3.0,Calm,Calm,-,N/A,,Clear,0,2013-02-06 09:15:00
3:35 AM,12.2,8.6,85,30.08,2.0,Calm,Calm,-,N/A,,Partly Cloudy,0,2013-02-06 09:35:00
3:55 AM,8.6,5.0,85,30.09,5.0,Calm,Calm,-,N/A,,Mostly Cloudy,0,2013-02-06 09:55:00
4:15 AM,8.6,5.0,85,30.09,5.0,Calm,Calm,-,N/A,,Mostly Cloudy,0,2013-02-06 10:15:00
4:35 AM,10.4,6.8,85,30.08,3.0,SSE,3.5,-,N/A,,Scattered Clouds,150,2013-02-06 10:35:00
4:55 AM,10.4,6.8,85,30.08,3.0,Calm,Calm,-,N/A,,Partly Cloudy,0,2013-02-06 10:55:00
5:15 AM,10.4,6.8,85,30.08,3.0,Calm,Calm,-,N/A,,Clear,0,2013-02-06 11:15:00
5:35 AM,6.8,3.2,85,30.08,6.0,Calm,Calm,-,N/A,,Mostly Cloudy,0,2013-02-06 11:35:00
5:55 AM,5.0,-0.4,78,30.10,10.0,Calm,Calm,-,N/A,,Overcast,0,2013-02-06 11:55:00
6:15 AM,5.0,1.4,85,30.09,8.0,Calm,Calm,-,N/A,,Mostly Cloudy,0,2013-02-06 12:15:00
6:35 AM,6.8,3.2,85,30.10,5.0,Calm,Calm,-,N/A,,Mostly Cloudy,0,2013-02-06 12:35:00
6:55 AM,6.8,3.2,85,30.11,7.0,Calm,Calm,-,N/A,,Overcast,0,2013-02-06 12:55:00
7:15 AM,10.4,6.8,85,30.11,4.0,SSE,4.6,-,N/A,,Overcast,160,2013-02-06 13:15:00
7:35 AM,14.0,10.4,86,30.10,5.0,SSE,5.8,-,N/A,,Overcast,150,2013-02-06 13:35:00
7:55 AM,14.0,12.2,93,30.10,5.0,SSE,5.8,-,N/A,,Overcast,150,2013-02-06 13:55:00
8:15 AM,14.0,12.2,93,30.10,5.0,South,5.8,-,N/A,,Overcast,170,2013-02-06 14:15:00
8:35 AM,17.6,14.0,86,30.09,5.0,SSE,4.6,-,N/A,,Scattered Clouds,160,2013-02-06 14:35:00
8:55 AM,19.4,15.8,86,30.09,6.0,SSE,4.6,-,N/A,,Partly Cloudy,160,2013-02-06 14:55:00
9:15 AM,19.4,17.6,93,30.10,7.0,SSW,4.6,-,N/A,,Partly Cloudy,200,2013-02-06 15:15:00
9:35 AM,21.2,19.4,93,30.10,7.0,South,6.9,-,N/A,,Partly Cloudy,190,2013-02-06 15:35:00
9:55 AM,21.2,19.4,93,30.10,8.0,South,8.1,13.8,N/A,,Clear,190,2013-02-06 15:55:00
10:15 AM,21.2,19.4,93,30.10,8.0,South,8.1,-,N/A,,Clear,170,2013-02-06 16:15:00
10:35 AM,23.0,19.4,86,30.10,9.0,Variable,6.9,-,N/A,,Clear,0,2013-02-06 16:35:00
11:15 AM,24.8,19.4,80,30.09,10.0,South,8.1,-,N/A,,Scattered Clouds,190,2013-02-06 17:15:00
11:35 AM,24.8,19.4,80,30.09,9.0,South,10.4,-,N/A,,Partly Cloudy,170,2013-02-06 17:35:00
11:55 AM,24.8,19.4,80,30.08,9.0,South,8.1,-,N/A,,Clear,170,2013-02-06 17:55:00
12:15 PM,26.6,19.4,74,30.07,9.0,SSE,8.1,-,N/A,,Scattered Clouds,150,2013-02-06 18:15:00
12:35 PM,28.4,21.2,74,30.06,9.0,SSE,10.4,-,N/A,,Scattered Clouds,150,2013-02-06 18:35:00
12:55 PM,28.4,21.2,74,30.05,10.0,SE,6.9,-,N/A,,Partly Cloudy,140,2013-02-06 18:55:00
1:15 PM,26.6,21.2,80,30.04,9.0,SSE,6.9,-,N/A,,Mostly Cloudy,150,2013-02-06 19:15:00
1:35 PM,28.4,21.2,74,30.03,10.0,SSE,9.2,-,N/A,,Overcast,150,2013-02-06 19:35:00
1:55 PM,28.4,21.2,74,30.02,10.0,SSE,10.4,-,N/A,,Scattered Clouds,150,2013-02-06 19:55:00
2:15 PM,28.4,21.2,74,30.02,9.0,SE,9.2,16.1,N/A,,Clear,140,2013-02-06 20:15:00
2:35 PM,30.2,23.0,75,30.00,9.0,SSE,12.7,18.4,N/A,,Clear,150,2013-02-06 20:35:00
2:55 PM,30.2,23.0,75,29.99,9.0,SSE,13.8,-,N/A,,Partly Cloudy,150,2013-02-06 20:55:00
3:35 PM,30.2,23.0,75,29.96,9.0,SSE,13.8,23.0,N/A,,Partly Cloudy,150,2013-02-06 21:35:00
3:55 PM,30.2,24.8,80,29.95,9.0,SSE,16.1,-,N/A,,Clear,150,2013-02-06 21:55:00
4:15 PM,32.0,24.8,75,29.96,9.0,SSE,9.2,19.6,N/A,,Mostly Cloudy,160,2013-02-06 22:15:00
4:35 PM,32.0,26.6,80,29.95,3.0,SSE,12.7,21.9,N/A,Snow,Light Snow,150,2013-02-06 22:35:00
4:55 PM,32.0,28.4,87,29.93,4.0,SSE,13.8,20.7,N/A,Rain,Light Rain,150,2013-02-06 22:55:00
5:15 PM,33.8,30.2,87,29.92,5.0,SSE,17.3,25.3,N/A,Rain,Light Rain,150,2013-02-06 23:15:00
5:35 PM,33.8,30.2,87,29.91,8.0,SSE,20.7,28.8,N/A,,Overcast,160,2013-02-06 23:35:00
5:55 PM,33.8,30.2,87,29.92,10.0,SSE,19.6,26.5,N/A,,Overcast,160,2013-02-06 23:55:00
6:15 PM,33.8,30.2,87,29.91,7.0,SSE,18.4,27.6,N/A,,Mostly Cloudy,160,2013-02-07 00:15:00
6:35 PM,33.8,30.2,87,29.92,10.0,SSE,15.0,26.5,N/A,,Overcast,160,2013-02-07 00:35:00
6:55 PM,33.8,30.2,87,29.92,-9999.0,SSE,12.7,23.0,N/A,,Overcast,160,2013-02-07 00:55:00
7:15 PM,33.8,30.2,87,29.97,8.0,North,5.8,16.1,N/A,Rain,Light Rain,10,2013-02-07 01:15:00
7:35 PM,33.8,32.0,93,29.96,3.0,ESE,6.9,-,N/A,Rain,Light Rain,120,2013-02-07 01:35:00
7:55 PM,33.8,32.0,93,29.97,5.0,SE,3.5,-,N/A,Rain,Light Rain,140,2013-02-07 01:55:00
8:15 PM,33.8,32.0,93,29.97,4.0,Calm,Calm,-,N/A,Rain,Light Rain,0,2013-02-07 02:15:00
8:35 PM,33.8,32.0,93,29.98,4.0,Calm,Calm,-,N/A,,Light Drizzle,0,2013-02-07 02:35:00
8:55 PM,33.8,32.0,93,29.97,2.5,SSE,5.8,-,0.01,Rain,Light Rain,150,2013-02-07 02:55:00
9:15 PM,33.8,32.0,93,29.97,4.0,SSE,6.9,-,N/A,Rain,Light Rain,150,2013-02-07 03:15:00
9:35 PM,33.8,32.0,93,29.97,4.0,SSE,4.6,-,N/A,Rain,Light Rain,160,2013-02-07 03:35:00
9:55 PM,33.8,33.8,100,29.97,5.0,SSE,5.8,-,0.01,,Overcast,160,2013-02-07 03:55:00
10:15 PM,35.6,33.8,93,29.96,6.0,SSE,6.9,-,N/A,,Overcast,160,2013-02-07 04:15:00
10:35 PM,35.6,33.8,93,29.96,6.0,SSE,5.8,-,N/A,,Overcast,160,2013-02-07 04:35:00
10:55 PM,35.6,33.8,93,29.96,7.0,SSE,8.1,-,N/A,,Overcast,160,2013-02-07 04:55:00
11:15 PM,35.6,33.8,93,29.96,7.0,South,6.9,-,N/A,,Overcast,170,2013-02-07 05:15:00
11:35 PM,35.6,33.8,93,29.96,9.0,SSE,9.2,-,N/A,,Overcast,160,2013-02-07 05:35:00
11:55 PM,35.6,33.8,93,29.96,9.0,SSE,9.2,-,N/A,,Overcast,160,2013-02-07 05:55:00